Location: Saratoga Springs
(43.0831°N, 73.7850°W)
Time: 21:50:49
(UTC-04:00)

Vanguard 2 Rocket - Pass Details

Date: 25 April 2024
Orbit: 556 x 3304 km, 32.9° (Epoch: 21 May)

Event Time Altitude Azimuth Distance (km) Brightness Sun altitude
Rises 00:18:47 0° 267° (W) 6,461 11.3 -33.0°
Reaches altitude 10° 00:22:44 10° 264° (W) 5,705 10.9 -33.1°
Maximum altitude 00:40:57 58° 192° (SSW) 3,655 9.4 -33.5°
Drops below altitude 10° 00:59:14 10° 119° (ESE) 5,714 10.7 -33.5°
Sets 01:03:13 0° 116° (ESE) 6,470 11.0 -33.5°
